|
Cosmos 1452 Rocket - Orbit
|
Rehoboth Beach;
18:56:28
| Home | Info | Passes |
|
View from above orbital plane
|
View from above satellite
|
Ground track
|
The orbit data is extracted from the following two-line orbital elements,
1 13992U 83031B 13142.20328823 .00000162 00000-0 65274-4 0 1391
2 13992 074.0533 213.5042 0005378 217.2895 177.1052 14.35551159575382
| Epoch (UTC): | 22 May 2013 04:52:44 |
| Eccentricity: | 0.0005378 |
| inclination: | 74.0533° |
| perigee height: | 769 km |
| apogee height: | 777 km |
| right ascension of ascending node: | 213.5042° |
| argument of perigee: | 217.2895° |
| revolutions per day: | 14.35551159 |
| mean anomaly at epoch: | 177.1052° |
| orbit number at epoch: | 57538 |
The dashed part of the orbit path shows where the satellite is in the earth's shadow,
|
|